{"data":{"norad_id":48604,"intl_designator":"2021-041BD","name":"STARLINK-2757","alt_names":[],"object_type":"PAYLOAD","status":"ACTIVE","operator":null,"country":"US","launch_date":"2021-05-15","launch_site_code":"AFETR","launch_vehicle":null,"mission":null,"orbit_class":"UNKNOWN","rcs_meters":null,"size_class":null,"mass_kg":null,"dimensions":null,"purposes":["comms"],"wikipedia_slug":null,"has_3d_model":false,"image_url":null,"decayed_at":null,"tle_current":{"epoch":"2026-05-25T00:38:05.125344Z","epoch_age_seconds":86912,"freshness":"FRESH","line1":"1 48604U 21041BD  26145.02644821 -.00000048  00000+0  10209-4 0  9993","line2":"2 48604  53.1604 153.8793 0001003  76.0877 284.0236 15.31705400277915","mean_motion":15.317054,"eccentricity":0.0001003,"inclination_deg":53.1604,"raan_deg":153.8793,"arg_perigee_deg":76.0877,"mean_anomaly_deg":284.0236,"bstar":1.0209e-5,"rev_number":27791,"period_min":94.012856519276,"perigee_km":470.03695740585,"apogee_km":471.41083890202,"semimajor_km":6848.8608981539,"source":"CELESTRAK","updated_at":"2026-05-25T13:38:16.752710Z"}}}